Regional Weather Roundup
Issued by NWS

Home | Current Version | Previous Version | Graphics & Text | Print | Product List | Glossary On
Versions: 1 2 3 4 5 6 7 8 9 10 11 12 13 14 15 16 17 18 19 20 21 22 23 24 25 26 27 28 29 30 31 32 33 34 35 36 37 38 39 40 41 42 43 44 45 46 47 48 49 50
000
ASUS43 KLOT 150058
RWRIL

ILLINOIS REGIONAL WEATHER ROUNDUP
NATIONAL WEATHER SERVICE CHICAGO/ROMEOVILLE IL
700 PM CST THU DEC 14 2017

NOTE: "FAIR" INDICATES FEW OR NO CLOUDS BELOW 12,000 FEET WITH NO
SIGNIFICANT WEATHER AND/OR OBSTRUCTIONS TO VISIBILITY.

* THESE STATIONS ARE NOT UNDER NWS QUALITY CONTROL. THEY ALSO MAY NOT
  REPORT WEATHER SUCH AS PRECIPITATION OR FOG.

ILZ001-002-007-009-015-016-024-150200-
NORTHWEST ILLINOIS

CITY           SKY/WX    TMP DP  RH WIND       PRES   REMARKS
MOLINE         NOT AVBL
$$

ILZ003-004-008-010-011-017-018-150200-
NORTH CENTRAL ILLINOIS

CITY           SKY/WX    TMP DP  RH WIND       PRES   REMARKS
ROCKFORD       NOT AVBL
$$

ILZ005-006-012>014-019>023-150200-
NORTHEAST ILLINOIS

CITY           SKY/WX    TMP DP  RH WIND       PRES   REMARKS
CHICAGO-OHARE  PTCLDY    21  11  65 W3        30.07S
CHICAGO-MIDWAY NOT AVBL
AURORA         NOT AVBL
WAUKEGAN       NOT AVBL
DUPAGE AIRPORT NOT AVBL
WHEELING       NOT AVBL
NORTHERLY ISL    N/A     25   9  50 W8          N/A  WCI  16
$$

LMZ740>746-150200-
SOUTHERN LAKE MICHIGAN

STATION/POSITION SKY/WX   TEMP    WIND        PRES    VSBY  WAVE
                          AIR SEA DIR/SP/G                  HT/PER
                          (F)     (DEG/KT/KT) (MB)    (MI)  (FT/S)
HARRISON CRIB              26     290/ 11/ 12   N/A
BURNHAM HARBOR             25     260/  4/  7   N/A
CALUMET HARBOR             25     280/  4/  6 1017.8R
BURNS HARBOR               26     210/  7/  9 1019.0R
MICHIGAN CITY              25     180/  7/  8   N/A
$$

ILZ025>027-034>036-040-047-049-050-058-095>099-150200-
WEST-CENTRAL ILLINOIS

CITY           SKY/WX    TMP DP  RH WIND       PRES   REMARKS
GALESBURG*     CLOUDY    28  19  71 W3        30.10S
$$

ILZ028>032-037-038-041>044-048-051>054-059>061-150200-
CENTRAL ILLINOIS

CITY           SKY/WX    TMP DP  RH WIND       PRES   REMARKS
PEORIA         NOT AVBL
SPRINGFIELD    NOT AVBL
TAYLORVILLE    NOT AVBL
$$

ILZ033-039-045-046-055>057-062-063-150200-
EAST-CENTRAL ILLINOIS

CITY           SKY/WX    TMP DP  RH WIND       PRES   REMARKS
$$

ILZ079-100>102-150200-
SOUTHWEST ILLINOIS

CITY           SKY/WX    TMP DP  RH WIND       PRES   REMARKS
ALTON          CLOUDY    30  19  64 NW6       30.13R WCI  24
$$

ILZ064>066-069>071-074>076-080>082-084>086-088>090-092>094-150200-
SOUTH-CENTRAL ILLINOIS

CITY           SKY/WX    TMP DP  RH WIND       PRES   REMARKS
CARBONDALE     NOT AVBL
MARION         CLOUDY    34  19  55 N8        30.12R WCI  27
$$

ILZ067-068-072-073-078-083-087-091-150200-
SOUTHEAST ILLINOIS

CITY           SKY/WX    TMP DP  RH WIND       PRES   REMARKS
$$

ABBREVIATIONS USED IN REMARKS
   TC - TEMPERATURE IN CELSIUS
  WCI - WIND CHILL INDEX
   HX - HEAT INDEX
  VSB - VISIBILITY
$$





USA.gov is the U.S. government's official web portal to all federal, state and local government web resources and services.